RH
36 31 28 30 29 23 20 21 28 31 25 26 27 25 24 21 19 19 21 22 20 17 18 15 15 16 16 31 33 34 53 52 46 41 39 32 33 30 30 36 36 35 35 30 31
34 31 28 26 26 20 25 32 29 26 27 27 24 23 22 22 20 20 19 18 18 16 17 19 23 22 34 31 36 45 54 41 36 37 38 34 33 33 33 37 39 40 35 34 35
34 30 25 23 21 24 28 27 29 29 26 23 22 21 21 25 20 21 18 17 16 16 18 20 20 28 37 35 38 39 46 37 37 36 34 35 35 30 37 37 36 41 39 37 34
32 27 20 19 22 25 27 30 28 25 22 20 19 20 20 21 22 19 17 17 16 15 16 18 26 33 40 39 36 41 39 35 36 34 31 34 32 34 33 33 34 36 35 36 39
32 23 19 20 23 25 26 28 26 21 22 23 20 19 19 26 22 18 17 16 15 14 16 22 28 34 38 36 33 38 33 33 35 34 34 32 34 35 38 37 34 34 36 39 40
29 20 19 21 22 24 26 26 23 21 21 20 17 17 18 29 18 16 17 16 16 16 20 22 27 30 35 36 38 35 34 32 29 30 30 36 35 29 34 37 37 38 42 40 39
26 18 20 21 22 25 23 22 22 21 20 20 18 17 22 22 18 17 17 18 17 17 22 22 21 25 30 33 29 29 34 30 29 29 31 31 34 33 35 36 38 42 43 41 40
23 18 20 23 25 22 21 23 20 18 18 18 18 17 22 17 17 16 16 16 17 16 17 18 18 29 29 30 31 34 37 41 33 32 30 34 43 29 37 38 42 44 48 44 41
20 21 24 24 23 21 22 22 19 18 18 18 18 17 21 16 16 16 17 18 17 17 18 18 20 30 30 39 44 40 42 45 37 34 32 38 43 30 34 38 42 46 50 46 47
20 23 24 23 22 22 20 19 16 17 17 16 16 16 18 20 18 16 17 16 18 16 18 23 29 31 34 39 39 39 41 41 42 39 33 39 44 32 33 35 40 44 47 46 49
20 22 23 23 22 22 23 24 17 22 18 22 21 20 20 18 16 18 19 17 16 22 24 26 28 32 26 27 28 27 28 29 37 34 38 45 42 38 34 34 41 44 46 48 49
20 24 24 23 23 26 24 34 34 22 23 20 19 20 19 19 19 20 18 16 19 23 23 23 27 24 24 26 24 27 25 28 31 32 38 40 43 36 36 36 39 42 45 49 50
25 26 25 23 26 26 33 43 39 25 28 21 20 20 20 19 24 24 21 21 20 23 28 27 21 24 22 29 22 30 26 28 27 32 33 36 42 41 34 33 37 38 39 46 51
28 29 26 26 25 28 36 38 28 27 29 24 23 18 20 23 23 20 21 22 25 25 26 29 27 24 25 28 28 23 28 25 27 35 38 33 42 49 44 40 40 40 48 50 54
30 28 30 28 28 31 33 31 28 23 28 21 23 17 22 23 22 21 21 22 26 29 28 28 29 25 22 26 29 21 27 30 31 38 41 43 49 42 46 47 42 45 47 51 56
29 29 32 30 29 34 30 28 23 33 27 25 23 23 23 28 26 26 27 26 25 29 30 28 28 27 27 28 28 29 31 36 48 50 50 41 44 38 55 46 43 42 45 52 58
31 30 28 31 34 29 26 26 34 38 24 28 26 26 28 29 28 30 35 42 36 31 33 31 31 29 26 20 22 31 32 42 38 42 41 44 46 40 41 39 41 43 48 56 59
32 30 30 29 28 26 27 33 30 28 31 26 27 27 26 29 29 35 36 41 39 40 42 33 19 27 28 24 22 32 29 38 37 43 41 37 49 34 34 34 36 39 49 60 62
33 32 31 31 28 28 37 41 31 33 28 30 27 30 32 28 28 37 42 45 42 38 34 27 22 31 30 28 23 25 29 26 29 36 42 38 33 35 36 37 44 52 60 63 63
34 34 33 31 28 30 42 40 40 36 34 30 30 30 33 31 31 33 41 39 40 34 35 36 29 32 31 29 28 23 24 30 40 40 47 42 38 38 44 43 42 52 60 64 62
38 41 39 31 35 49 45 44 40 34 34 32 34 32 33 32 34 38 39 40 37 36 31 30 35 24 29 33 32 33 32 30 33 40 41 47 42 32 36 40 41 48 55 66 62
51 47 37 36 46 67 50 39 36 35 35 35 36 33 33 38 40 41 40 42 34 34 33 33 40 35 25 27 24 29 28 29 43 40 41 42 39 33 36 40 40 48 61 64 47
56 50 41 40 44 54 46 44 43 38 39 36 37 34 36 41 35 43 46 35 35 38 35 34 36 32 27 30 28 29 30 28 32 33 38 43 42 34 36 38 45 61 67 58 32
59 36 46 61 55 48 45 41 42 41 38 37 37 35 37 38 44 46 47 44 36 39 39 40 41 29 28 24 30 34 30 28 29 40 39 38 33 29 36 42 59 66 68 57 30
75 57 45 46 51 44 38 44 44 42 39 38 37 37 36 39 40 44 53 49 42 47 39 40 40 44 44 43 41 42 42 34 33 33 34 32 34 27 33 39 57 66 70 50 30
58 58 64 60 48 44 49 48 44 43 42 40 38 40 38 37 34 44 51 50 43 43 37 45 39 36 37 29 32 40 38 42 39 33 35 30 32 29 48 62 68 74 71 57 31
60 57 53 60 50 44 47 43 45 45 43 43 42 43 39 40 40 39 43 46 40 40 43 45 44 40 37 38 46 45 38 40 35 38 34 36 30 40 49 54 64 74 70 58 25
Wind_Speed
8 9 10 10 11 12 12 12 11 11 12 10 6 5 7 11 21 18 18 19 18 14 10 15 11 15 25 7 9 3 5 3 6 6 5 5 4 4 6 7 5 5 4 13 10
8 8 9 12 12 13 14 12 10 11 9 6 4 6 7 6 8 20 22 22 16 11 6 12 6 16 6 6 5 6 4 3 1 6 5 4 5 5 4 4 5 6 11 12 13
8 8 9 13 13 14 13 14 11 8 5 4 5 7 5 3 5 7 22 19 15 7 8 9 11 7 7 5 7 4 4 3 5 8 7 5 3 3 10 2 5 9 6 9 13
7 8 12 14 15 16 16 11 7 5 4 4 4 6 10 3 4 12 20 15 11 4 4 8 7 6 6 6 5 7 7 5 3 5 5 4 5 4 1 4 10 12 15 10 12
7 9 13 15 16 15 11 7 6 6 5 6 7 4 3 7 3 17 15 12 10 13 16 5 8 6 6 6 3 7 3 6 7 9 6 6 3 5 3 7 15 15 11 11 11
8 11 15 16 15 11 7 6 6 8 9 10 8 8 6 11 8 14 13 12 10 13 12 9 6 9 8 5 6 4 9 6 4 4 5 7 3 2 4 6 8 8 7 9 10
10 13 15 15 12 9 7 6 6 7 7 7 7 11 14 3 9 12 14 19 11 18 11 11 11 7 6 6 4 5 6 4 2 3 2 7 1 4 8 8 9 7 7 7 7
13 15 15 13 11 9 7 4 5 6 7 5 6 8 4 8 7 11 13 16 19 26 28 23 22 12 6 6 5 4 4 2 4 5 3 1 5 3 9 9 8 8 6 6 5
15 15 14 12 9 7 5 5 4 5 7 4 5 5 2 6 6 12 9 6 14 16 15 11 8 6 3 5 4 4 1 2 1 8 5 3 4 5 8 8 8 7 7 6 5
15 14 12 9 9 6 6 10 13 5 5 7 7 6 6 4 6 10 6 5 5 2 4 8 6 5 4 4 2 3 2 3 4 6 5 5 7 5 8 7 9 8 7 6 6
14 12 10 10 8 5 5 2 5 7 13 3 1 3 3 8 4 10 11 2 3 8 4 5 7 3 2 3 3 1 2 3 2 3 4 6 5 9 8 5 7 7 7 7 6
12 11 10 8 8 7 6 6 1 2 5 5 2 3 3 4 4 15 11 4 5 3 3 6 3 3 1 4 2 3 2 3 2 2 4 0 6 3 6 4 7 10 8 8 6
10 11 9 7 6 10 13 6 4 2 5 4 3 2 3 5 2 7 6 2 5 5 4 5 2 3 3 4 3 0 2 1 4 2 2 4 5 2 3 3 6 6 5 6 9
11 10 5 3 4 4 4 4 4 1 4 6 4 4 3 2 4 3 6 2 5 4 2 3 4 3 3 2 2 2 2 1 2 2 3 1 5 4 5 6 7 7 7 7 7
9 6 5 2 6 3 2 3 3 1 3 1 3 2 3 4 2 6 9 5 3 1 2 1 3 4 3 1 2 4 1 2 1 2 3 1 2 4 2 7 11 8 7 7 6
7 4 4 4 4 3 1 4 2 5 2 1 1 1 3 6 4 5 7 9 2 4 5 1 1 2 1 2 2 3 3 5 4 3 2 2 3 5 5 6 3 5 7 7 6
5 3 3 3 2 2 1 2 5 3 3 1 1 2 2 3 4 5 5 7 3 2 4 4 1 3 2 2 1 7 5 4 5 4 5 3 2 8 5 5 5 10 9 7 6
3 2 4 5 3 2 1 5 1 2 4 1 2 2 2 1 3 5 3 3 4 3 3 2 4 3 3 2 1 3 3 4 4 3 5 0 6 5 1 3 3 7 7 6 5
4 2 1 3 3 1 5 3 5 4 2 5 2 2 2 2 2 4 3 1 1 2 2 1 3 0 1 1 1 1 2 1 0 2 2 3 7 0 2 2 3 6 6 6 5
3 1 0 2 2 2 4 4 3 2 1 1 4 2 3 2 1 2 0 1 0 1 1 3 3 2 0 2 2 2 4 2 3 4 5 5 6 5 6 9 7 7 7 6 5
2 2 0 1 2 5 2 5 3 2 2 1 4 3 2 2 2 1 3 1 1 2 2 1 2 2 1 3 4 1 0 4 3 4 3 4 6 4 6 8 13 8 7 7 6
2 0 1 2 3 1 3 3 1 2 2 1 3 2 3 2 2 2 2 1 1 1 1 1 3 4 5 1 1 1 2 4 4 4 3 2 7 1 4 5 8 8 7 6 6
2 2 0 2 3 1 2 0 1 2 1 2 2 0 1 3 2 2 2 1 3 1 1 2 0 4 6 2 2 2 3 4 4 3 6 4 7 2 2 4 4 9 8 7 6
2 1 3 4 1 7 5 3 3 0 1 2 3 1 3 2 3 4 2 1 1 1 3 1 1 5 6 5 2 3 4 5 5 3 3 7 9 10 7 7 6 7 7 7 6
2 3 2 3 2 4 3 5 4 5 1 1 1 3 4 3 2 3 2 0 1 1 2 2 3 3 6 9 3 5 8 8 9 6 7 7 7 14 7 12 11 8 7 7 6
3 2 2 0 2 6 3 6 8 3 5 4 3 4 3 4 4 6 6 4 3 0 2 1 2 2 5 1 2 7 8 10 9 4 11 17 20 2 5 8 8 9 9 7 6
2 1 3 2 2 4 5 6 9 7 1 1 2 4 3 3 3 4 5 5 3 6 5 2 1 3 5 5 8 6 6 6 4 6 6 7 8 5 3 6 10 10 9 8 7
Wind_Direction
124 121 131 134 131 126 124 121 119 112 105 96 78 43 18 52 52 52 34 348 343 356 29 71 94 64 60 53 41 82 68 119 171 158 153 183 106 28 38 76 42 26 100 132 129
123 130 140 134 130 126 121 118 115 108 98 79 44 2 4 23 24 39 1 2 358 355 31 53 60 46 52 31 25 62 83 139 312 143 139 110 93 126 95 85 58 74 100 123 96
134 140 146 130 132 127 120 120 111 96 77 47 16 16 342 338 40 339 0 3 358 15 66 75 71 62 62 25 5 29 117 130 10 100 106 106 84 108 133 125 195 164 148 117 89
132 150 136 133 129 123 124 116 94 79 51 40 29 48 47 56 74 336 356 2 360 60 77 24 39 54 63 54 2 90 45 94 139 103 92 106 110 93 272 204 141 148 141 125 97
147 141 134 132 129 129 122 106 88 77 54 45 61 72 64 52 14 351 10 15 74 93 76 90 58 104 90 101 63 74 107 51 86 84 80 102 92 139 111 122 135 135 127 123 114
142 140 137 134 135 129 124 111 99 88 60 64 73 80 73 76 352 17 28 51 61 76 59 59 98 107 84 62 58 73 88 104 49 102 115 120 140 69 225 138 134 135 138 135 139
147 145 137 139 134 130 126 108 94 63 62 59 61 70 64 73 13 30 31 49 71 89 84 88 116 77 130 99 145 105 78 84 115 174 131 133 218 230 159 161 149 142 149 153 149
154 145 142 141 134 125 115 102 83 69 52 74 47 55 89 17 31 34 60 60 78 83 93 91 85 93 76 127 60 73 83 96 194 172 170 143 269 176 155 154 163 166 172 169 146
153 149 146 138 127 117 92 73 87 71 51 81 40 74 10 358 25 8 18 33 75 92 85 78 68 89 78 85 52 25 239 211 242 192 145 195 255 190 166 171 174 178 189 177 154
155 152 143 135 120 109 95 81 76 55 47 64 41 50 3 324 336 352 358 31 68 38 21 39 55 74 42 59 217 211 232 239 232 206 176 190 257 195 185 174 185 187 191 192 177
153 149 138 128 103 54 14 31 25 360 36 80 264 108 333 332 19 3 1 70 35 52 51 13 68 108 203 206 217 212 217 255 233 183 159 219 252 212 187 172 177 195 198 196 184
151 143 134 125 76 20 43 75 100 163 67 34 50 34 17 356 14 349 9 70 51 65 345 29 89 220 228 7 215 203 226 267 301 136 182 15 270 228 171 202 190 192 197 186 175
144 136 130 123 66 66 86 77 41 129 91 347 35 12 335 34 76 323 19 84 90 56 19 124 197 288 167 37 50 112 177 193 240 11 272 337 284 198 209 188 194 206 182 171 184
139 130 115 109 94 95 68 50 8 90 75 315 348 350 7 90 38 351 15 91 37 143 116 95 336 56 84 63 89 331 187 171 270 105 263 57 287 244 222 224 214 189 168 176 175
136 123 77 107 124 99 118 9 359 94 51 254 319 334 28 83 313 349 30 31 87 73 116 262 22 32 66 270 145 226 224 262 243 133 22 317 78 254 136 246 232 196 189 195 179
138 125 98 91 73 98 48 2 98 44 246 16 321 343 31 15 10 329 23 37 99 80 36 125 123 84 256 283 207 322 78 44 55 89 352 213 152 267 195 211 190 158 187 180 169
130 94 76 80 82 9 13 42 38 130 23 220 147 62 81 1 26 39 37 18 43 57 1 356 360 341 9 350 69 44 46 343 354 2 235 169 159 255 235 227 210 178 178 175 167
168 138 81 65 37 44 86 53 194 174 203 273 113 72 84 356 33 29 69 28 35 57 79 71 333 16 5 67 227 29 116 142 285 270 289 175 239 263 238 87 122 138 146 143 151
192 180 231 1 10 88 74 79 214 207 196 150 68 87 340 35 109 83 54 178 278 28 108 92 275 290 81 125 115 50 46 179 122 36 9 251 291 237 105 135 128 151 141 165 150
203 207 210 342 6 94 78 225 203 216 275 155 171 153 191 278 113 73 184 157 240 76 126 195 322 191 124 113 43 53 157 7 21 314 293 285 283 252 233 222 197 187 179 169 148
188 61 352 345 98 52 170 215 210 221 188 159 187 134 166 169 109 129 165 162 39 341 78 138 113 287 35 191 181 79 348 58 126 148 229 298 268 215 230 206 200 183 174 165 157
121 29 30 137 53 33 151 190 222 169 40 107 93 112 154 154 123 134 204 161 36 17 241 272 151 267 231 111 84 143 190 149 127 263 225 163 268 311 273 215 164 155 156 150 147
142 227 29 151 154 206 262 143 110 148 168 133 133 214 110 144 130 119 157 92 61 82 169 190 299 338 346 44 18 220 201 129 109 83 217 168 267 166 129 130 131 150 152 152 148
98 106 327 56 76 137 162 192 170 226 169 114 142 135 116 117 18 160 170 175 63 99 106 84 185 186 210 225 139 230 207 182 149 156 213 230 282 268 216 187 168 157 155 158 152
45 240 208 202 227 141 139 150 148 183 215 161 83 224 172 138 124 149 129 121 103 82 85 110 259 213 256 265 227 234 228 195 199 200 194 282 222 283 208 200 183 160 154 156 164
158 145 10 83 107 118 160 216 174 182 151 224 196 170 178 164 182 185 150 199 197 153 153 24 267 352 289 89 40 279 231 222 230 235 258 269 277 77 54 98 140 165 170 174 178
195 164 109 307 147 126 211 186 198 136 216 10 218 122 147 181 121 102 94 84 136 159 176 164 135 44 271 349 315 304 230 195 208 208 185 232 249 151 157 169 170 174 184 176 179